[[{"header":{"parameterUnit":"m.s-1","parameterCategory":1,"la1":30.2991,"la2":30.254,"lo1":-89.0895,"lo2":-89.0444,"dy":0.0017,"dx":0.0017,"nx":28,"ny":28,"refTime":"2024-06-09T21:00:00:Z","depth":0,"parameterNumber":2,"parameterNumberName":"U-component_of_WINDS"},"data":[0,0,0,0,0,0,0,0,0,0,0,0,0,0,0,0,0,0,0,0,0,0,0,0,0,0,0,0,0,0,0,0,0,0,0,0,0,0,0,0,0,0,0,0,0,0,0,0,0,0,0,0,0,0,0,0,0,0,4.5121,4.5122,0,4.5204,4.5205,4.5206,4.5122,4.5119,4.5116,4.5113,4.5201,4.5206,4.5211,0,0,0,0,0,0,0,0,0,0,0,0,0,4.4893,4.4898,4.5121,4.5122,4.5123,4.5204,4.5205,4.5206,4.5123,4.5119,4.5115,4.5111,4.5199,4.5205,4.5212,0,0,0,0,0,0,0,0,0,0,0,0,0,4.4986,4.4899,4.5121,4.5091,4.5089,4.5204,4.5205,4.5207,4.5124,4.5119,4.5114,4.5109,4.5197,4.5205,4.5213,4.5362,0,0,4.5238,4.5241,0,0,0,0,0,0,0,0,4.4981,4.4994,4.5094,4.5093,4.5091,4.5148,4.5157,4.5259,4.5125,4.5111,4.5113,4.5107,4.5187,4.5196,4.5223,4.5366,4.537,4.5238,4.5243,4.5247,4.5249,0,0,0,0,0,0,0,4.4974,4.499,4.5154,4.5096,4.5094,4.5075,4.5083,4.5176,4.5176,4.5112,4.5106,4.5117,4.5186,4.5215,4.5224,4.5371,4.5238,4.5245,4.525,4.5253,4.5643,4.5649,0,0,0,0,0,0,4.4971,4.4986,4.5151,4.5156,4.5023,4.5083,4.5092,4.5135,4.5175,4.5176,4.5121,4.5112,4.5203,4.5215,4.5227,4.5405,4.5247,4.5254,4.5259,4.5638,4.5645,4.565,0,0,0,0,0,0,4.4966,4.4986,4.5148,4.507,4.5089,4.5092,4.5141,4.5139,4.5168,4.5181,4.5181,4.5151,4.52,4.5215,4.5329,4.5407,4.5258,4.5265,4.5631,4.564,4.5648,4.5763,0,0,0,0,0,0,4.496,4.4985,4.5041,4.5071,4.5093,4.5248,4.5146,4.5144,4.5182,4.5172,4.5209,4.5211,4.5197,4.5318,4.5337,4.5416,4.5272,4.5624,4.5635,4.5645,4.5752,4.5774,4.5793,0,0,0,0,0,4.4952,4.507,4.5044,4.5065,4.5162,4.5253,4.5265,4.5247,4.5189,4.5245,4.5254,4.521,4.5395,4.533,4.5351,4.5433,4.5619,4.5632,4.5644,4.5743,4.577,4.5792,0,0,0,0,0,0,4.5049,4.5073,4.5045,4.5176,4.5213,4.5238,4.5309,4.5275,4.533,4.5318,4.5294,4.5303,4.5424,4.544,4.5366,4.5581,4.5498,4.5515,4.5566,4.5592,4.5611,4.5605,4.5278,0,0,0,0,0,4.5085,4.5155,4.5173,4.5287,4.5307,4.5306,4.5344,4.5327,4.5364,4.538,4.5397,4.5436,4.5503,4.5548,4.5611,4.5754,4.5762,4.5821,4.5842,4.5858,4.5874,4.5953,4.598,4.5691,4.5691,4.5691,0,0,4.5161,4.5183,4.5229,4.5307,4.5334,4.5409,4.5319,4.5401,4.5457,4.5392,4.5501,4.5516,4.5558,4.5688,4.5746,4.5705,4.5955,4.5874,4.5887,4.5894,4.5969,4.5996,4.602,4.5699,4.5698,4.5697,0,0,4.5338,4.5361,4.546,4.5489,4.553,4.5528,4.5552,4.5584,4.5591,4.5699,4.5653,4.572,4.5836,4.5868,4.59,4.6093,4.6054,4.6114,4.622,4.6298,4.632,4.6341,4.6411,4.6436,4.6129,4.6129,4.6129,0,4.5428,4.5537,4.5515,4.5601,4.5638,4.5583,4.5683,4.5713,4.5773,4.58,4.5753,4.5899,4.5924,4.6061,4.6109,4.6136,4.6164,4.6109,4.6319,4.6339,4.6357,4.6424,4.645,4.6136,4.6135,4.6135,4.6134,0,4.5647,4.5724,4.5798,4.5858,4.5903,4.5996,4.5989,4.6038,4.6017,4.6021,4.6134,4.6162,4.623,4.6261,4.6242,4.6397,4.6371,4.6322,4.6238,4.6392,4.6455,4.648,4.6146,4.6144,4.6142,4.614,0,0,4.5886,4.5933,4.5961,4.5988,4.6031,4.6091,4.6183,4.6249,4.6292,4.6336,4.6414,4.6514,4.647,4.6506,4.649,4.6558,4.6712,4.6501,4.6502,4.6541,4.6887,4.6924,4.6954,4.6686,4.6691,4.6695,4.6884,0,4.6065,4.6223,4.6207,4.6358,4.643,4.638,4.646,4.6496,4.6503,4.6566,4.6574,4.6646,4.6581,4.6603,4.6668,4.6679,4.6781,4.6665,4.676,4.6763,4.6752,4.6987,4.7026,4.7203,4.6908,4.6912,4.6915,0,4.6295,4.6348,4.6506,4.654,4.657,4.6642,4.6703,4.6763,4.6804,4.6804,4.6846,4.6819,4.6913,4.6828,4.6958,4.688,4.6918,4.693,4.6936,4.6945,4.6849,4.7003,4.7259,4.7286,4.6953,4.695,4.6947,0,4.6456,4.6566,4.6676,4.6701,4.6742,4.6795,4.6815,4.6851,4.6892,4.6946,4.6973,4.7037,4.7073,4.7124,4.7116,4.7054,4.725,4.7163,4.7254,4.7255,4.7298,4.7295,4.7565,4.7321,4.7321,4.732,4.7319,0,4.6658,4.6758,4.6749,4.6816,4.6927,4.6908,4.7018,4.7032,4.7065,4.7136,4.7096,4.7164,4.7148,4.7216,4.721,4.732,4.7336,4.734,4.7338,4.7345,4.7344,4.737,4.7358,4.7327,4.7325,4.7324,4.7323,0,4.6856,4.6854,4.6971,4.7001,4.7011,4.7092,4.7118,4.7183,4.7187,4.7277,4.7298,4.7304,4.7382,4.7379,4.7467,4.7463,4.76,4.7582,4.7586,4.7583,4.7675,4.7667,4.797,4.801,4.774,4.7742,4.7744,0,4.6986,4.7062,4.7101,4.7145,4.7169,4.724,4.7283,4.7268,4.7314,4.7367,4.7427,4.7501,4.7559,4.7686,4.77,4.7768,4.7752,4.7854,4.7762,4.7768,4.7756,4.7752,4.776,4.7873,4.7876,4.7878,4.788,0,4.7218,4.7213,4.7275,4.7339,4.7391,4.744,4.7485,4.7524,4.7514,4.7568,4.7647,4.7693,4.7783,4.7858,4.7924,4.7946,4.7913,4.7909,4.7934,4.7942,4.7941,4.7945,4.7636,4.7902,4.79,4.7898,4.7897,4.7896,4.7386,4.7452,4.749,4.7562,4.7594,4.7638,4.7701,4.7713,4.7778,4.785,4.7838,4.7927,4.7968,4.8052,4.8081,4.8151,4.8115,4.8151,4.816,4.817,4.8181,4.793,4.8163,4.8162,4.8162,4.8161,4.8161,0,4.7617,4.7639,4.7706,4.777,4.7827,4.779,4.7839,4.7889,4.7968,4.8009,4.8067,4.8159,4.8232,4.8253,4.8323,4.8376,4.8363,4.8395,4.8392,4.8398,4.8208,4.818,4.8405,4.8405,4.8405,4.8405,4.8405,4.8405,4.7744,4.7853,4.7854,4.798,4.8002,4.8088,4.812,4.816,4.8193,4.8297,4.8358,4.837,4.8403,4.8477,4.8543,4.8547,4.8575,4.8615,4.8613,4.8435,4.8411,4.8388,4.8361,4.8621,4.8621,4.8797,4.8798,4.88]},{"header":{"parameterUnit":"m.s-1","parameterCategory":1,"la1":30.2991,"la2":30.254,"lo1":-89.0895,"lo2":-89.0444,"dy":0.0017,"dx":0.0017,"nx":28,"ny":28,"refTime":"2024-06-09T21:00:00:Z","depth":0,"parameterNumber":3,"parameterNumberName":"V-component_of_WINDS"},"data":[0,0,0,0,0,0,0,0,0,0,0,0,0,0,0,0,0,0,0,0,0,0,0,0,0,0,0,0,0,0,0,0,0,0,0,0,0,0,0,0,0,0,0,0,0,0,0,0,0,0,0,0,0,0,0,0,0,0,-0.9003,-0.9003,0,-0.8988,-0.8988,-0.8987,-0.8981,-0.8981,-0.8981,-0.8981,-0.8964,-0.8964,-0.8963,0,0,0,0,0,0,0,0,0,0,0,0,0,-0.9026,-0.9026,-0.9003,-0.9003,-0.9003,-0.8988,-0.8988,-0.8987,-0.8981,-0.8981,-0.8981,-0.8981,-0.8964,-0.8964,-0.8963,0,0,0,0,0,0,0,0,0,0,0,0,0,-0.9014,-0.9025,-0.9003,-0.8998,-0.8997,-0.8988,-0.8988,-0.8987,-0.8981,-0.8981,-0.8981,-0.8981,-0.8965,-0.8964,-0.8963,-0.8958,0,0,-0.8961,-0.8961,0,0,0,0,0,0,0,0,-0.9015,-0.9013,-0.8999,-0.8998,-0.8997,-0.8986,-0.899,-0.8977,-0.8981,-0.8987,-0.8981,-0.8981,-0.8971,-0.897,-0.8967,-0.8957,-0.8956,-0.8961,-0.896,-0.896,-0.896,0,0,0,0,0,0,0,-0.9015,-0.9014,-0.8997,-0.8999,-0.8998,-0.8996,-0.8994,-0.8987,-0.8979,-0.8987,-0.8986,-0.8984,-0.8971,-0.8968,-0.8967,-0.8956,-0.8961,-0.896,-0.896,-0.896,-0.8941,-0.8941,0,0,0,0,0,0,-0.9017,-0.9014,-0.8997,-0.8997,-0.9006,-0.8995,-0.8994,-0.899,-0.8979,-0.8978,-0.8984,-0.8984,-0.8969,-0.8968,-0.8966,-0.8959,-0.896,-0.896,-0.8959,-0.8941,-0.8941,-0.8941,0,0,0,0,0,0,-0.9018,-0.9016,-0.8998,-0.9005,-0.9003,-0.8995,-0.8991,-0.899,-0.8986,-0.8978,-0.8976,-0.8983,-0.8969,-0.8967,-0.896,-0.8959,-0.8959,-0.8959,-0.8941,-0.8941,-0.8941,-0.8946,0,0,0,0,0,0,-0.9018,-0.9016,-0.9014,-0.9005,-0.9003,-0.8993,-0.8991,-0.8989,-0.8985,-0.8985,-0.8976,-0.8974,-0.8969,-0.8961,-0.8959,-0.8958,-0.8958,-0.8942,-0.8941,-0.8941,-0.8946,-0.8946,-0.8946,0,0,0,0,0,-0.9019,-0.9016,-0.9014,-0.9012,-0.9,-0.8992,-0.8991,-0.8985,-0.8985,-0.8983,-0.8978,-0.8974,-0.8959,-0.8961,-0.8959,-0.8957,-0.8942,-0.8941,-0.8941,-0.8946,-0.8946,-0.8946,0,0,0,0,0,0,-0.9024,-0.9014,-0.9012,-0.9006,-0.9,-0.8991,-0.8988,-0.8986,-0.898,-0.8979,-0.8973,-0.8971,-0.8964,-0.896,-0.8961,-0.8951,-0.895,-0.895,-0.8954,-0.8954,-0.8955,-0.8956,-0.8957,0,0,0,0,0,-0.9024,-0.9019,-0.9011,-0.9006,-0.9003,-0.8996,-0.8993,-0.8989,-0.8983,-0.898,-0.8974,-0.8968,-0.8962,-0.8958,-0.8952,-0.8945,-0.8943,-0.8943,-0.8943,-0.8943,-0.8943,-0.894,-0.8939,-0.8941,-0.8941,-0.8941,0,0,-0.9024,-0.9018,-0.9016,-0.9007,-0.9002,-0.8997,-0.8994,-0.8989,-0.8985,-0.8979,-0.8973,-0.8968,-0.8961,-0.8954,-0.8951,-0.895,-0.8942,-0.8943,-0.8943,-0.8943,-0.8939,-0.8939,-0.8939,-0.8941,-0.8941,-0.8941,0,0,-0.9022,-0.9017,-0.9013,-0.9008,-0.9001,-0.8997,-0.8996,-0.8988,-0.8985,-0.8978,-0.8974,-0.8969,-0.8959,-0.8954,-0.895,-0.8947,-0.8944,-0.8945,-0.8945,-0.8942,-0.8942,-0.8942,-0.8941,-0.8941,-0.8944,-0.8945,-0.8945,0,-0.9023,-0.9015,-0.901,-0.9005,-0.9002,-0.8997,-0.8993,-0.8988,-0.8979,-0.8977,-0.8976,-0.8964,-0.8958,-0.8951,-0.895,-0.8947,-0.8946,-0.8946,-0.8943,-0.8942,-0.8942,-0.8941,-0.8941,-0.8945,-0.8945,-0.8945,-0.8945,0,-0.9017,-0.9012,-0.9009,-0.9001,-0.8997,-0.8992,-0.8987,-0.8983,-0.898,-0.8976,-0.8969,-0.8963,-0.8956,-0.8954,-0.8951,-0.8946,-0.8946,-0.8944,-0.8943,-0.8942,-0.8941,-0.8941,-0.8945,-0.8945,-0.8945,-0.8945,0,0,-0.9016,-0.9007,-0.9006,-0.9003,-0.8995,-0.8991,-0.8986,-0.8979,-0.8976,-0.8971,-0.8966,-0.8958,-0.8957,-0.8952,-0.8949,-0.8946,-0.8944,-0.8945,-0.8944,-0.8945,-0.8939,-0.894,-0.894,-0.8943,-0.8942,-0.8942,-0.894,0,-0.9013,-0.9005,-0.9001,-0.8994,-0.8989,-0.8985,-0.8981,-0.8976,-0.8972,-0.8967,-0.8963,-0.8957,-0.8956,-0.8953,-0.895,-0.8945,-0.8943,-0.8945,-0.8938,-0.8938,-0.894,-0.8939,-0.894,-0.8938,-0.8939,-0.8939,-0.8939,0,-0.9008,-0.9003,-0.8996,-0.8989,-0.8987,-0.8984,-0.8978,-0.8973,-0.8967,-0.8965,-0.896,-0.8957,-0.8952,-0.8951,-0.8944,-0.8946,-0.8943,-0.894,-0.894,-0.8939,-0.8938,-0.8938,-0.8937,-0.8937,-0.8938,-0.8938,-0.8938,0,-0.9009,-0.9,-0.8995,-0.8992,-0.8984,-0.8982,-0.8978,-0.8973,-0.8969,-0.8964,-0.8962,-0.8956,-0.8952,-0.8948,-0.8943,-0.8943,-0.8936,-0.8935,-0.8934,-0.8934,-0.8932,-0.8932,-0.8931,-0.8931,-0.8931,-0.8931,-0.8931,0,-0.9005,-0.9001,-0.8995,-0.8991,-0.8987,-0.8982,-0.8977,-0.8974,-0.8969,-0.8965,-0.8961,-0.8957,-0.8951,-0.8947,-0.8943,-0.8938,-0.8936,-0.8934,-0.8933,-0.8934,-0.8934,-0.8932,-0.8931,-0.893,-0.893,-0.8931,-0.8931,0,-0.9005,-0.9,-0.8994,-0.8988,-0.8986,-0.8983,-0.8977,-0.8974,-0.897,-0.8965,-0.8964,-0.8958,-0.8952,-0.8947,-0.894,-0.8937,-0.8932,-0.8931,-0.8934,-0.8933,-0.8932,-0.8932,-0.8928,-0.8928,-0.8928,-0.8928,-0.8928,0,-0.9003,-0.8999,-0.8993,-0.899,-0.8987,-0.8982,-0.8979,-0.8975,-0.8971,-0.8965,-0.8962,-0.8957,-0.8952,-0.8944,-0.8938,-0.8933,-0.8931,-0.8931,-0.893,-0.8932,-0.8931,-0.8932,-0.8931,-0.893,-0.893,-0.893,-0.893,0,-0.9,-0.8998,-0.8993,-0.8989,-0.8985,-0.8981,-0.8976,-0.8974,-0.8969,-0.8965,-0.896,-0.8956,-0.8949,-0.8944,-0.8938,-0.8934,-0.8931,-0.8931,-0.893,-0.8931,-0.8933,-0.8932,-0.8934,-0.8931,-0.8931,-0.8931,-0.8931,-0.8931,-0.8998,-0.8995,-0.8991,-0.8986,-0.8982,-0.8978,-0.8975,-0.8971,-0.8967,-0.8961,-0.8959,-0.8953,-0.8948,-0.894,-0.8936,-0.8932,-0.8932,-0.8931,-0.893,-0.893,-0.893,-0.8934,-0.8931,-0.8931,-0.8931,-0.8931,-0.8931,0,-0.8995,-0.8992,-0.8988,-0.8982,-0.8979,-0.8977,-0.8972,-0.8969,-0.8965,-0.896,-0.8956,-0.895,-0.8945,-0.894,-0.8935,-0.8932,-0.8931,-0.8931,-0.8931,-0.893,-0.8931,-0.8932,-0.8932,-0.8932,-0.8932,-0.8932,-0.8932,-0.8932,-0.8993,-0.8988,-0.8986,-0.898,-0.8976,-0.8971,-0.8969,-0.8965,-0.8962,-0.8956,-0.8952,-0.8948,-0.8944,-0.8938,-0.8933,-0.8932,-0.893,-0.8931,-0.8929,-0.893,-0.893,-0.893,-0.8931,-0.893,-0.893,-0.8928,-0.8928,-0.8928]}]]